Regional Weather Roundup
Issued by NWS Albany, NY

Home | Current Version | Previous Version | Graphics & Text | Print | Product List | Glossary Off
Versions: 1 2 3 4 5 6 7 8 9 10 11 12 13 14 15 16 17 18 19 20 21 22 23 24 25 26 27 28 29

000
ASUS41 KALY 291010
RWRALY

NEW YORK STATE HOURLY WEATHER ROUNDUP
NATIONAL WEATHER SERVICE ALBANY NY
600 AM EDT FRI APR 29 2016

NOTE: "FAIR" INDICATES FEW OR NO CLOUDS BELOW 12,000 FEET WITH NO
SIGNIFICANT WEATHER AND/OR NO OBSTRUCTIONS TO VISIBILITY.

NYZ032-033-038>043-046>054-057>066-NYZ062>081-082-084-291100-
EAST


CITY           SKY/WX    TMP DP  RH WIND       PRES   REMARKS
ALBANY         MOCLDY    38  20  48 N6        30.12R WCI  33
GLENS FALLS    CLOUDY    37  20  50 N8        30.12R WCI  31
POUGHKEEPSIE   CLOUDY    47  32  56 N3        30.08R
NEWBURGH       CLOUDY    46  39  76 VRB6      30.08R
MONTGOMERY     CLOUDY    45  33  63 NE9       30.08R
WHITE PLAINS   CLOUDY    46  37  71 E8        30.07R
ISLIP          CLOUDY    47  36  65 E8        30.09R
NEW YORK CITY  CLOUDY    50  35  56 E9        30.07R
CENTRAL PARK   CLOUDY    49  34  56 E7        30.09R
$$

NYZ005>009-017-018-044>046-055-056-291100-
CENTRAL


CITY           SKY/WX    TMP DP  RH WIND       PRES   REMARKS
FULTON         CLOUDY    37  27  67 CALM      30.05S
SYRACUSE       CLOUDY    39  28  64 NE3       30.05R
ROME           CLOUDY    37  26  64 E5        30.09R WCI  33
ELMIRA         CLOUDY    43  33  68 E3        30.03R
BINGHAMTON     CLOUDY    41  33  73 E6        30.01R
MONTICELLO     CLOUDY    41  36  81 E7        30.06R
$$

NYZ026>034-041>043-087-291100-
NORTH


CITY           SKY/WX    TMP DP  RH WIND       PRES   REMARKS
WATERTOWN      PTCLDY    32  20  61 NE8       30.08R WCI  25
FORT DRUM      NOT AVBL
MASSENA        CLEAR     31  18  58 NE10      30.16S WCI  22
SARANAC LAKE   CLEAR     28  12  51 E5        30.07R WCI  23
PLATTSBURGH    CLEAR     27  19  72 NW5       30.17R WCI  22
$$

NYZ001>004-010>016-019>021-085-291100-
WEST


CITY           SKY/WX    TMP DP  RH WIND       PRES   REMARKS
NIAGARA FALLS  PTCLDY    41  23  48 E10       30.04S
BUFFALO        CLOUDY    41  23  48 NE7       30.04R
DUNKIRK        CLOUDY    44  31  60 NE10      30.01S
JAMESTOWN      CLOUDY    41  34  75 E9        29.97S
WELLSVILLE     CLOUDY    38  33  82 SE3       30.01R
ROCHESTER      PTCLDY    38  28  67 NE6       30.05F WCI  33
PENN YAN       LGT RAIN  41  34  76 CALM      30.04R
$$

             KEY
       WCI = WIND CHILL INDEX
       VSB = VISIBILITY
       HX  = HEAT INDEX
$$




USA.gov is the U.S. government's official web portal to all federal, state and local government web resources and services.